Date,TemperatureHighF,TemperatureAvgF,TemperatureLowF,DewpointHighF,DewpointAvgF,DewpointLowF,HumidityHigh,HumidityAvg,HumidityLow,PressureMaxIn,PressureMinIn,WindSpeedMaxMPH,WindSpeedAvgMPH,GustSpeedMaxMPH,PrecipitationSumIn
2013-1-1,33.0,28.0,17.0,31.0,23.6,11.0,97,83,68,0.00,40.00,9,3,14,3.30
2013-1-2,24.0,16.2,9.0,15.0,10.5,5.0,90,78,62,0.00,40.00,6,2,7,0.00
2013-1-3,30.0,18.8,4.0,21.0,11.9,0.0,89,75,53,0.00,40.00,15,5,22,0.00
2013-1-4,32.0,28.1,25.0,23.0,19.5,17.0,78,70,62,0.00,40.00,20,11,31,0.00
2013-1-5,38.0,29.5,19.0,26.0,21.5,16.0,90,72,56,0.00,40.00,11,4,16,0.00
2013-1-6,38.0,33.9,27.0,32.0,27.5,22.0,90,77,68,0.00,40.00,17,8,23,1.10
2013-1-7,37.0,29.8,23.0,26.0,23.7,20.0,88,78,61,0.00,40.00,10,4,15,0.00
2013-1-8,46.0,30.2,18.0,33.0,24.2,15.0,93,79,57,0.00,40.00,6,1,8,0.00
2013-1-9,47.0,38.8,27.0,40.0,33.4,24.0,92,81,70,0.00,40.00,14,5,20,0.55
2013-1-10,40.0,34.5,27.0,31.0,29.0,25.0,95,81,68,0.00,40.00,9,3,13,0.00
2013-1-11,60.0,49.2,39.0,53.0,44.4,30.0,97,84,69,0.00,40.00,15,5,23,6.17
2013-1-12,63.0,54.5,40.0,60.0,52.7,40.0,99,94,78,0.00,40.00,8,2,11,0.00
2013-1-13,64.0,58.9,41.0,60.0,55.0,37.0,96,87,74,0.00,40.00,22,9,34,6.13
2013-1-14,40.0,31.6,27.0,37.0,25.4,22.0,88,77,67,0.00,40.00,12,5,22,0.00
2013-1-15,32.0,28.3,24.0,23.0,21.5,20.0,86,75,66,0.00,40.00,12,5,18,0.00
2013-1-16,35.0,32.0,30.0,29.0,26.0,23.0,88,78,70,0.00,40.00,12,5,17,0.00
2013-1-17,38.0,32.8,28.0,29.0,26.2,18.0,84,76,62,0.00,40.00,10,4,17,0.00
2013-1-18,35.0,27.0,18.0,22.0,15.8,9.0,77,63,51,0.00,40.00,14,6,22,0.00
2013-1-19,52.0,43.3,34.0,28.0,23.6,20.0,61,46,30,0.00,40.00,23,13,35,0.00
2013-1-20,46.0,32.7,24.0,32.0,17.6,11.0,64,53,40,0.00,40.00,23,12,37,0.00
2013-1-21,24.0,20.0,10.0,18.0,10.1,-2.0,84,65,54,0.00,40.00,24,10,30,2.79
2013-1-22,14.0,10.2,6.0,-1.0,-3.1,-5.0,62,54,45,0.00,40.00,17,10,23,0.00
2013-1-23,20.0,14.3,8.0,14.0,3.2,-1.0,88,62,40,0.00,40.00,15,6,21,1.65
2013-1-24,22.0,16.9,13.0,14.0,8.9,6.0,89,71,52,0.00,40.00,8,4,16,0.00
2013-1-25,22.0,17.8,15.0,19.0,11.3,4.0,90,76,56,0.00,40.00,10,5,16,5.62
2013-1-26,28.0,24.9,21.0,22.0,17.9,12.0,91,75,58,0.00,40.00,9,5,14,0.55
2013-1-27,35.0,23.4,8.0,26.0,15.0,4.0,88,71,55,0.00,40.00,8,3,11,1.10
2013-1-28,50.0,42.7,31.0,49.0,40.9,27.0,97,93,84,0.00,40.00,14,7,29,6.17
2013-1-29,67.0,57.2,49.0,55.0,51.4,48.0,98,82,63,0.00,40.00,14,6,22,0.00
2013-1-30,65.0,55.8,33.0,57.0,49.7,31.0,95,80,68,0.00,40.00,31,12,45,9.55
2013-1-31,35.0,25.1,21.0,31.0,17.9,10.0,93,74,56,0.00,40.00,29,14,40,6.69
2013-2-1,20.0,11.9,8.0,15.0,3.3,-1.0,87,68,60,0.00,40.00,18,10,28,0.55
2013-2-2,26.0,18.7,9.0,24.0,14.3,3.0,93,82,72,0.00,40.00,12,6,19,1.65
2013-2-3,25.0,21.4,19.0,23.0,16.7,9.0,93,82,65,0.00,40.00,17,6,25,4.40
2013-2-4,29.0,22.3,13.0,28.0,18.0,10.0,94,84,57,0.00,40.00,11,3,18,1.65
2013-2-5,30.0,28.7,28.0,29.0,24.9,21.0,96,86,72,0.00,40.00,11,3,15,0.55
2013-2-6,35.0,29.9,20.0,28.0,21.5,16.0,87,71,51,0.00,40.00,9,3,12,0.00
2013-2-7,49.0,34.5,19.0,33.0,24.9,16.0,86,69,48,0.00,40.00,9,3,12,0.00
2013-2-8,44.0,34.7,27.0,39.0,28.4,19.0,95,78,67,0.00,40.00,16,8,25,3.34
2013-2-9,37.0,28.2,22.0,21.0,17.2,15.0,74,63,47,0.00,40.00,9,2,14,0.00
2013-2-10,48.0,37.1,26.0,40.0,24.4,17.0,80,60,42,0.00,40.00,13,4,25,0.00
2013-2-11,53.0,45.9,38.0,45.0,35.7,25.0,93,69,45,0.00,40.00,30,15,50,0.00
2013-2-12,45.0,36.8,31.0,28.0,25.8,23.0,83,64,49,0.00,40.00,21,8,29,0.00
2013-2-13,33.0,29.4,25.0,30.0,26.2,23.0,95,88,77,0.00,40.00,6,2,9,1.65
2013-2-14,43.0,33.8,22.0,37.0,30.2,21.0,95,87,69,0.00,40.00,16,5,34,0.00
2013-2-15,37.0,32.1,27.0,32.0,27.6,22.0,96,83,72,0.00,40.00,8,3,16,3.34
2013-2-16,29.0,23.6,17.0,23.0,16.7,9.0,93,75,48,0.00,40.00,14,4,22,0.00
2013-2-17,24.0,18.0,14.0,11.0,8.1,2.0,77,65,50,0.00,40.00,12,6,19,0.55
2013-2-18,51.0,33.2,15.0,32.0,19.0,8.0,78,57,43,0.00,40.00,15,5,22,0.00
2013-2-19,49.0,33.2,22.0,38.0,26.3,12.0,95,76,47,0.00,40.00,29,16,45,7.28
2013-2-20,22.0,20.1,17.0,17.0,11.0,8.0,85,67,58,0.00,40.00,19,12,29,1.65
2013-2-21,29.0,23.3,20.0,17.0,14.6,11.0,81,69,57,0.00,40.00,10,5,15,0.55
2013-2-22,42.0,33.2,25.0,39.0,29.3,16.0,95,85,68,0.00,40.00,16,5,22,0.00
2013-2-23,42.0,36.0,30.0,33.0,28.6,23.0,91,75,56,0.00,40.00,13,4,32,0.00
2013-2-24,33.0,29.6,26.0,25.0,21.6,19.0,87,72,58,0.00,40.00,12,5,17,0.00
2013-2-25,44.0,34.5,24.0,26.0,22.7,21.0,89,64,43,0.00,40.00,11,4,17,0.00
2013-2-26,41.0,36.1,33.0,40.0,29.1,22.0,97,77,56,0.00,40.00,15,9,24,6.13
2013-2-27,40.0,36.5,33.0,36.0,33.1,30.0,93,87,75,0.00,40.00,19,11,28,0.55
2013-2-28,36.0,33.5,31.0,33.0,30.6,28.0,95,89,82,0.00,40.00,16,9,22,0.55
2013-3-1,33.0,30.8,27.0,31.0,24.1,18.0,93,76,61,0.00,40.00,9,4,16,0.00
2013-3-2,30.0,26.9,25.0,23.0,21.3,19.0,87,79,65,0.00,40.00,9,4,14,0.00
2013-3-3,28.0,24.7,23.0,21.0,17.7,14.0,90,75,60,0.00,40.00,11,4,16,1.10
2013-3-4,39.0,28.3,18.0,23.0,17.7,14.0,92,67,37,0.00,40.00,11,2,16,0.00
2013-3-5,42.0,35.2,29.0,31.0,24.5,21.0,96,65,52,0.00,40.00,14,6,19,3.89
2013-3-6,39.0,34.5,32.0,32.0,30.7,28.0,97,86,69,0.00,40.00,9,5,16,4.99
2013-3-7,41.0,35.2,31.0,30.0,28.0,27.0,84,75,59,0.00,40.00,9,4,14,0.00
2013-3-8,47.0,36.4,28.0,29.0,25.4,22.0,82,65,44,0.00,40.00,8,3,11,0.00
2013-3-9,57.0,40.6,26.0,33.0,28.1,23.0,90,64,35,0.00,40.00,9,3,14,0.00
2013-3-10,68.0,57.9,48.0,36.0,33.2,30.0,51,40,29,0.00,40.00,10,4,16,0.00
2013-3-11,62.0,54.4,42.0,51.0,39.9,34.0,96,61,37,0.00,40.00,17,8,29,9.02
2013-3-12,42.0,36.7,33.0,36.0,30.5,27.0,94,78,65,0.00,40.00,19,9,25,0.55
2013-3-13,34.0,30.3,27.0,32.0,23.7,17.0,95,77,60,0.00,40.00,19,10,30,0.00
2013-3-14,41.0,31.0,23.0,22.0,17.9,15.0,75,59,40,0.00,40.00,14,7,25,0.00
2013-3-15,49.0,39.0,30.0,40.0,29.2,20.0,91,68,57,0.00,40.00,14,6,22,2.20
2013-3-16,53.0,43.0,33.0,47.0,39.2,29.0,96,87,74,0.00,40.00,16,5,22,0.55
2013-3-17,38.0,33.9,31.0,29.0,25.7,22.0,87,72,55,0.00,40.00,12,5,21,0.00
2013-3-18,50.0,40.0,31.0,49.0,37.5,24.0,97,91,71,0.00,40.00,20,8,29,10.07
2013-3-19,43.0,35.6,30.0,37.0,23.6,16.0,84,62,43,0.00,40.00,25,16,39,0.00
2013-3-20,37.0,31.0,24.0,20.0,15.8,10.0,64,53,41,0.00,40.00,20,11,30,0.00
2013-3-21,29.0,23.9,19.0,20.0,12.8,8.0,77,62,47,0.00,40.00,15,7,24,0.00
2013-3-22,41.0,30.8,21.0,21.0,17.3,15.0,79,58,38,0.00,40.00,14,6,19,0.00
2013-3-23,48.0,35.1,23.0,25.0,21.6,19.0,89,61,34,0.00,40.00,11,2,16,0.00
2013-3-24,37.0,32.8,30.0,31.0,25.1,20.0,95,73,51,0.00,40.00,14,8,22,4.44
2013-3-25,35.0,32.9,32.0,32.0,30.9,29.0,98,93,84,0.00,40.00,3,0,6,3.85
2013-3-26,42.0,35.7,32.0,32.0,28.3,22.0,94,76,48,0.00,40.00,16,3,21,0.00
2013-3-27,44.0,37.1,33.0,29.0,26.0,21.0,85,65,43,0.00,40.00,18,9,30,0.00
2013-3-28,47.0,38.3,29.0,28.0,25.0,22.0,76,60,41,0.00,40.00,13,5,22,0.00
2013-3-29,52.0,40.3,29.0,30.0,26.9,24.0,87,60,37,0.00,40.00,12,3,21,0.00
2013-3-30,56.0,42.4,27.0,34.0,27.1,23.0,92,60,29,0.00,40.00,8,2,14,0.00
2013-3-31,53.0,45.5,39.0,46.0,38.3,-99.9,95,79,62,0.00,40.00,14,4,22,2.20
2013-4-1,48.0,40.2,32.0,40.0,24.3,15.0,81,54,34,0.00,40.00,18,7,27,0.00
2013-4-2,42.0,32.9,24.0,18.0,15.0,13.0,64,48,30,0.00,40.00,14,5,25,0.00
2013-4-3,46.0,34.4,23.0,18.0,14.1,11.0,67,44,26,0.00,40.00,11,4,22,0.00
2013-4-4,53.0,38.5,26.0,27.0,16.3,11.0,67,43,22,0.00,40.00,7,2,11,0.00
2013-4-5,59.0,43.1,29.0,32.0,24.8,20.0,85,52,28,0.00,40.00,11,3,21,0.00
2013-4-6,60.0,45.2,31.0,22.0,17.9,12.0,65,37,17,0.00,40.00,10,5,14,0.00
2013-4-7,72.0,62.5,55.0,47.0,38.7,18.0,66,42,22,0.00,40.00,24,11,35,0.00
2013-4-8,72.0,61.0,49.0,52.0,47.0,41.0,75,61,45,0.00,40.00,18,6,25,0.00
2013-4-9,80.0,69.7,53.0,57.0,54.0,49.0,91,60,40,0.00,40.00,21,-1,32,0.00
2013-4-10,82.0,70.6,60.0,63.0,58.8,55.0,96,67,49,0.00,40.00,24,10,35,0.00
2013-4-11,71.0,62.1,58.0,63.0,58.1,55.0,97,87,70,0.00,40.00,13,3,24,6.73
2013-4-12,61.0,49.8,41.0,59.0,44.2,32.0,98,82,62,0.00,40.00,19,10,30,2.75
2013-4-13,53.0,44.3,39.0,37.0,34.5,31.0,78,69,52,0.00,40.00,19,9,28,0.00
2013-4-14,66.0,49.8,34.0,41.0,35.9,31.0,92,62,36,0.00,40.00,9,3,14,0.00
2013-4-15,70.0,61.3,51.0,53.0,47.6,39.0,67,60,49,0.00,40.00,11,5,18,0.00
2013-4-16,77.0,63.8,58.0,63.0,55.8,50.0,98,76,54,0.00,40.00,19,6,29,5.66
2013-4-17,66.0,59.1,54.0,59.0,55.6,51.0,98,88,76,0.00,40.00,12,5,19,0.00
2013-4-18,84.0,71.4,59.0,62.0,57.7,55.0,93,65,36,0.00,40.00,19,8,35,0.00
2013-4-19,75.0,54.2,40.0,60.0,43.0,30.0,93,67,48,0.00,40.00,24,14,39,6.13
2013-4-20,46.0,40.2,34.0,32.0,27.8,24.0,90,62,44,0.00,40.00,20,10,27,0.00
2013-4-21,54.0,42.2,29.0,28.0,25.3,21.0,89,55,28,0.00,40.00,12,4,16,0.00
2013-4-22,69.0,52.7,36.0,42.0,33.9,25.0,74,50,30,0.00,40.00,8,3,13,0.00
2013-4-23,71.0,59.8,45.0,49.0,38.0,28.0,63,45,34,0.00,40.00,14,5,20,0.00
2013-4-24,64.0,53.2,37.0,56.0,44.7,34.0,97,75,49,0.00,40.00,21,8,29,13.49
2013-4-25,55.0,44.8,35.0,38.0,34.2,28.0,94,68,47,0.00,40.00,19,7,28,0.00
2013-4-26,62.0,48.2,33.0,39.0,32.1,29.0,90,57,32,0.00,40.00,6,2,12,0.00
2013-4-27,72.0,56.1,38.0,44.0,37.1,31.0,89,54,22,0.00,40.00,9,3,14,0.00
2013-4-28,63.0,57.6,53.0,59.0,51.9,-99.9,98,85,54,0.00,40.00,9,4,16,11.72
2013-4-29,63.0,58.7,55.0,57.0,55.5,53.0,97,89,73,0.00,40.00,9,4,12,1.10
2013-4-30,76.0,62.4,47.0,57.0,52.9,47.0,99,74,46,0.00,40.00,7,2,12,0.00
2013-5-1,81.0,68.1,55.0,59.0,54.3,51.0,87,63,40,0.00,40.00,11,4,23,0.00
2013-5-2,76.0,67.4,58.0,57.0,52.1,47.0,78,58,47,0.00,40.00,11,4,19,0.00
2013-5-3,78.0,67.4,58.0,56.0,45.3,37.0,87,50,23,0.00,40.00,14,6,22,0.00
2013-5-4,72.0,63.0,54.0,46.0,42.6,37.0,64,47,34,0.00,40.00,15,7,24,0.00
2013-5-5,74.0,63.5,51.0,44.0,38.5,29.0,72,42,24,0.00,40.00,12,7,22,0.00
2013-5-6,69.0,61.7,57.0,58.0,47.3,31.0,90,61,28,0.00,40.00,12,5,17,1.10
2013-5-7,70.0,61.9,56.0,62.0,55.0,52.0,91,78,59,0.00,40.00,13,5,19,1.69
2013-5-8,74.0,63.2,56.0,59.0,53.7,51.0,95,72,47,0.00,40.00,11,3,16,0.00
2013-5-9,79.0,66.1,52.0,58.0,54.4,49.0,98,70,36,0.00,40.00,13,4,21,0.00
2013-5-10,74.0,63.3,59.0,64.0,57.2,-99.9,97,85,65,0.00,40.00,20,6,45,5.50
2013-5-11,62.0,54.9,46.0,60.0,50.3,39.0,95,85,68,0.00,40.00,14,6,32,0.00
2013-5-12,52.0,45.7,39.0,39.0,31.7,-99.9,89,61,41,0.00,40.00,18,8,27,0.00
2013-5-13,57.0,46.5,39.0,36.0,31.2,26.0,81,57,34,0.00,40.00,7,2,14,0.00
2013-5-14,74.0,56.1,37.0,54.0,42.0,34.0,92,62,36,0.00,40.00,14,5,21,0.00
2013-5-15,87.0,75.8,65.0,60.0,57.8,54.0,70,55,37,0.00,40.00,23,12,37,0.00
2013-5-16,77.0,65.8,63.0,64.0,38.6,-99.9,94,72,48,0.00,40.00,12,4,22,2.79
2013-5-17,81.0,68.8,62.0,64.0,56.7,-99.9,99,78,45,0.00,40.00,9,3,12,0.00
2013-5-18,79.0,67.7,60.0,64.0,59.6,54.0,90,76,57,0.00,40.00,9,3,13,0.55
2013-5-19,80.0,71.2,62.0,66.0,63.2,60.0,94,77,58,0.00,40.00,9,3,13,0.00
2013-5-20,85.0,74.0,65.0,72.0,68.0,64.0,98,83,61,0.00,40.00,10,4,16,0.00
2013-5-21,85.0,76.1,69.0,70.0,66.4,63.0,94,73,49,0.00,40.00,15,6,26,0.00
2013-5-22,80.0,72.5,65.0,65.0,61.8,60.0,92,70,55,0.00,40.00,20,8,31,0.00
2013-5-23,74.0,64.7,50.0,63.0,57.9,43.0,95,80,50,0.00,40.00,21,9,32,0.00
2013-5-24,58.0,49.7,44.0,44.0,36.7,32.0,82,62,43,0.00,40.00,12,6,22,0.00
2013-5-25,65.0,51.5,37.0,42.0,37.7,35.0,95,63,37,0.00,40.00,12,3,23,0.00
2013-5-26,69.0,55.3,40.0,42.0,35.8,23.0,92,53,23,0.00,40.00,7,2,12,0.00
2013-5-27,68.0,56.7,48.0,51.0,45.8,41.0,89,68,44,0.00,40.00,12,4,19,2.24
2013-5-28,84.0,73.1,60.0,65.0,60.1,52.0,85,65,46,0.00,40.00,19,8,29,0.00
2013-5-29,86.0,77.1,68.0,64.0,60.6,58.0,71,57,40,0.00,40.00,19,9,28,0.00
2013-5-30,89.0,77.4,66.0,66.0,63.1,58.0,91,64,37,0.00,40.00,11,4,17,0.00
2013-5-31,88.0,75.3,65.0,68.0,63.7,60.0,98,69,46,0.00,40.00,21,7,41,3.94
2013-6-1,83.0,74.5,67.0,70.0,66.6,65.0,96,77,56,0.00,40.00,24,8,32,0.00
2013-6-2,77.0,70.9,66.0,69.0,61.0,-99.9,98,75,54,0.00,40.00,16,8,24,0.00
2013-6-3,68.0,62.9,57.0,59.0,54.1,46.0,84,73,58,0.00,40.00,7,3,12,0.00
2013-6-4,75.0,61.4,45.0,51.0,46.0,41.0,90,59,40,0.00,40.00,10,3,16,0.00
2013-6-5,81.0,68.1,53.0,64.0,52.6,45.0,92,59,41,0.00,40.00,9,3,13,1.69
2013-6-6,71.0,67.0,60.0,67.0,64.6,58.0,98,92,79,0.00,40.00,7,3,14,2.20
2013-6-7,70.0,60.7,56.0,58.0,55.5,53.0,96,84,61,0.00,40.00,7,4,12,0.00
2013-6-8,75.0,64.9,54.0,60.0,54.9,52.0,95,71,50,0.00,40.00,7,2,12,0.00
2013-6-9,83.0,72.5,64.0,66.0,61.5,58.0,85,69,45,0.00,40.00,7,3,16,0.55
2013-6-10,78.0,69.2,65.0,67.0,65.1,62.0,96,87,66,0.00,40.00,13,6,24,1.65
2013-6-11,83.0,71.9,63.0,66.0,63.4,62.0,96,76,50,0.00,40.00,14,6,20,0.00
2013-6-12,87.0,77.5,67.0,76.0,69.2,64.0,92,76,63,0.00,40.00,10,4,16,0.00
2013-6-13,81.0,70.4,64.0,73.0,62.1,55.0,97,76,52,0.00,40.00,17,6,39,2.20
2013-6-14,76.0,67.3,56.0,59.0,56.1,54.0,91,68,48,0.00,40.00,9,3,16,0.00
2013-6-15,79.0,67.8,54.0,60.0,56.5,52.0,97,70,41,0.00,40.00,7,2,11,0.00
2013-6-16,76.0,71.3,67.0,68.0,64.4,59.0,93,79,64,0.00,40.00,14,8,25,0.00
2013-6-17,83.0,73.0,67.0,70.0,67.0,65.0,96,82,59,0.00,40.00,11,4,21,0.00
2013-6-18,79.0,69.5,63.0,70.0,64.5,55.0,97,85,65,0.00,40.00,8,3,16,4.48
2013-6-19,77.0,66.7,56.0,56.0,51.5,45.0,88,61,33,0.00,40.00,9,3,14,0.00
2013-6-20,82.0,65.7,54.0,57.0,53.4,50.0,92,68,37,0.00,40.00,7,2,11,0.00
2013-6-22,88.0,84.0,75.0,69.0,67.8,66.0,78,58,48,0.00,40.00,11,5,16,0.00
2013-6-23,88.0,78.0,66.0,70.0,67.2,62.0,96,71,48,0.00,40.00,11,4,16,0.00
2013-6-24,86.0,74.3,66.0,71.0,65.9,62.0,93,76,53,0.00,40.00,9,3,15,0.00
2013-6-25,90.0,79.7,68.0,74.0,69.9,64.0,93,73,55,0.00,40.00,17,8,23,0.00
2013-6-26,85.0,74.1,67.0,72.0,68.7,65.0,97,84,62,0.00,40.00,13,6,19,5.04
2013-6-27,82.0,72.0,67.0,74.0,69.2,66.0,98,91,69,0.00,40.00,9,3,13,0.55
2013-6-28,81.0,71.5,65.0,69.0,65.4,61.0,96,82,54,0.00,40.00,17,4,22,0.00
2013-6-29,81.0,68.3,61.0,68.0,62.6,59.0,96,83,54,0.00,40.00,12,4,20,0.00
2013-6-30,78.0,69.2,63.0,68.0,64.2,61.0,98,85,57,0.00,40.00,9,3,19,0.00
2013-7-1,83.0,69.6,65.0,68.0,64.7,63.0,96,85,54,0.00,40.00,7,3,13,0.00
2013-7-2,82.0,73.1,66.0,71.0,66.8,65.0,97,82,62,0.00,40.00,7,3,12,0.00
2013-7-3,82.0,73.9,70.0,72.0,69.1,68.0,94,85,65,0.00,40.00,7,2,12,0.55
2013-7-4,75.0,71.9,70.0,70.0,68.8,67.0,97,90,76,0.00,40.00,8,3,13,5.50
2013-7-5,79.0,70.7,67.0,71.0,68.2,66.0,99,92,75,0.00,40.00,9,4,17,3.34
2013-7-6,84.0,75.0,70.0,74.0,69.4,66.0,96,83,64,0.00,40.00,16,4,24,0.00
2013-7-7,80.0,72.3,66.0,68.0,65.2,61.0,91,79,61,0.00,40.00,9,4,16,0.00
2013-7-8,80.0,69.2,64.0,73.0,64.4,-99.9,99,88,75,0.00,40.00,9,3,19,6.72
2013-7-9,86.0,74.5,69.0,77.0,71.4,69.0,99,90,71,0.00,40.00,13,6,17,4.52
2013-7-10,88.0,72.0,66.0,77.0,66.1,-99.9,98,87,68,0.00,40.00,13,5,22,0.00
2013-7-11,77.0,69.5,65.0,66.0,62.6,55.0,97,80,54,0.00,40.00,10,3,18,0.00
2013-7-12,79.0,68.4,59.0,64.0,59.2,56.0,92,74,55,0.00,40.00,13,4,21,0.00
2013-7-13,84.0,75.8,63.0,68.0,65.5,61.0,95,72,56,0.00,40.00,9,4,16,0.00
2013-7-14,89.0,79.5,69.0,73.0,70.0,66.0,92,73,57,0.00,40.00,11,3,18,0.00
2013-7-15,91.0,80.3,73.0,74.0,70.8,68.0,87,73,51,0.00,40.00,7,2,12,0.00
2013-7-16,94.0,82.2,71.0,77.0,72.9,70.0,98,75,50,0.00,40.00,5,1,9,0.00
2013-7-17,92.0,82.0,73.0,75.0,72.9,70.0,96,76,48,0.00,40.00,6,2,12,0.00
2013-7-18,91.0,81.4,74.0,76.0,73.7,72.0,95,78,54,0.00,40.00,9,2,12,0.00
2013-7-19,89.0,79.2,74.0,76.0,73.2,70.0,95,83,63,0.00,40.00,14,5,19,0.00
2013-7-20,78.0,73.6,70.0,73.0,69.2,-99.9,97,88,78,0.00,40.00,10,4,16,1.69
2013-7-21,83.0,75.1,69.0,73.0,70.1,68.0,98,85,68,0.00,40.00,4,1,8,0.00
2013-7-22,74.0,72.2,71.0,71.0,69.9,69.0,93,92,90,0.00,40.00,2,1,4,0.00
2013-7-23,81.0,78.6,75.0,72.0,71.3,70.0,84,79,75,0.00,40.00,11,9,16,0.00
2013-7-24,75.0,69.7,62.0,61.0,56.1,54.0,75,62,53,0.00,40.00,9,4,15,0.00
2013-7-25,78.0,64.1,54.0,58.0,54.1,51.0,94,72,46,0.00,40.00,6,2,10,0.00
2013-7-26,80.0,67.8,56.0,64.0,58.6,55.0,95,74,48,0.00,40.00,7,2,12,0.00
2013-7-27,73.0,67.9,66.0,66.0,64.0,63.0,97,87,77,0.00,40.00,14,5,20,2.75
2013-7-28,71.0,64.0,56.0,63.0,54.4,49.0,96,72,50,0.00,40.00,15,5,26,0.00
2013-7-29,74.0,62.1,56.0,59.0,54.4,52.0,86,76,53,0.00,40.00,10,3,17,0.00
2013-7-30,79.0,66.5,57.0,64.0,58.7,56.0,98,78,52,0.00,40.00,5,1,10,0.00
2013-7-31,75.0,69.0,66.0,66.0,64.4,63.0,93,85,73,0.00,40.00,7,3,15,1.10
2013-8-1,80.0,72.1,67.0,67.0,63.9,59.0,98,77,50,0.00,40.00,9,4,15,0.00
2013-8-2,78.0,69.6,60.0,64.0,61.1,57.0,98,76,52,0.00,40.00,11,4,14,0.00
2013-8-3,81.0,70.7,64.0,68.0,64.0,60.0,98,81,53,0.00,40.00,9,2,19,2.20
2013-8-4,76.0,66.9,59.0,62.0,57.3,54.0,98,74,48,0.00,40.00,7,3,17,0.00
2013-8-5,77.0,63.4,54.0,61.0,55.6,52.0,97,78,47,0.00,40.00,5,1,9,0.00
2013-8-6,81.0,71.6,62.0,64.0,59.7,56.0,86,67,48,0.00,40.00,7,2,13,0.00
2013-8-7,85.0,73.9,65.0,74.0,68.4,63.0,92,83,66,0.00,40.00,9,3,15,0.00
2013-8-8,82.0,74.8,71.0,74.0,71.8,70.0,98,91,74,0.00,40.00,10,2,15,0.55
2013-8-9,79.0,71.9,66.0,72.0,67.5,61.0,99,87,56,0.00,40.00,7,2,12,2.20
2013-8-10,82.0,74.3,65.0,68.0,65.5,64.0,97,76,57,0.00,40.00,7,2,11,0.55
2013-8-11,84.0,72.7,64.0,72.0,67.2,63.0,98,84,61,0.00,40.00,11,2,19,0.00
2013-8-19,81.0,64.7,63.0,65.0,43.4,-99.9,99,77,49,0.00,40.00,4,1,9,0.00
2013-8-20,85.0,69.4,59.0,67.0,58.7,-99.9,98,77,46,0.00,40.00,4,1,7,0.00
2013-8-21,82.0,70.7,62.0,70.0,64.7,60.0,96,83,56,0.00,40.00,9,2,15,0.00
2013-8-22,81.0,72.7,64.0,72.0,67.2,63.0,98,83,68,0.00,40.00,10,4,17,0.00
2013-8-23,84.0,73.7,66.0,68.0,64.8,59.0,99,76,46,0.00,40.00,11,3,17,2.83
2013-8-24,82.0,69.9,58.0,62.0,59.0,56.0,92,70,42,0.00,40.00,5,2,9,0.00
2013-8-25,83.0,69.5,58.0,67.0,57.2,-99.9,96,71,41,0.00,40.00,7,2,12,0.00
2013-8-26,84.0,72.2,60.0,70.0,64.6,59.0,96,78,56,0.00,40.00,11,4,16,0.00
2013-8-27,79.0,73.4,70.0,72.0,69.3,67.0,92,87,76,0.00,40.00,9,3,11,0.00
2013-8-28,84.0,81.0,73.0,75.0,72.7,70.0,89,76,69,0.00,40.00,9,5,16,0.00
2013-8-29,84.0,74.8,68.0,70.0,69.1,67.0,97,83,61,0.00,40.00,6,2,8,0.00
2013-8-30,86.0,74.7,65.0,72.0,68.2,64.0,98,82,59,0.00,40.00,9,3,13,0.00
2013-8-31,84.0,75.8,69.0,73.0,70.1,68.0,98,83,66,0.00,40.00,14,5,22,1.10
2013-9-1,83.0,74.2,70.0,72.0,66.6,-99.9,97,81,63,0.00,40.00,8,4,14,0.00
2013-9-2,83.0,74.1,68.0,74.0,69.2,65.0,97,85,67,0.00,40.00,11,4,17,0.00
2013-9-3,69.0,62.6,56.0,65.0,55.7,52.0,95,79,59,0.00,40.00,7,2,14,0.00
2013-9-4,79.0,63.7,52.0,62.0,56.0,51.0,98,79,52,0.00,40.00,9,3,12,0.00
2013-9-5,80.0,67.1,58.0,65.0,57.4,47.0,96,73,41,0.00,40.00,7,3,15,0.00
2013-9-6,75.0,61.7,49.0,53.0,49.2,44.0,95,67,33,0.00,40.00,6,2,11,0.00
2013-9-7,82.0,64.9,49.0,64.0,55.8,48.0,96,75,49,0.00,40.00,7,2,12,0.00
2013-9-8,82.0,71.6,66.0,69.0,62.6,-99.9,93,77,61,0.00,40.00,6,2,12,0.00
2013-9-9,87.0,74.2,61.0,71.0,65.8,60.0,94,77,54,0.00,40.00,10,4,16,0.00
2013-9-10,91.0,80.5,73.0,75.0,71.8,69.0,87,75,57,0.00,40.00,11,5,19,0.00
2013-10-9,69.0,57.9,44.0,49.0,44.7,43.0,96,65,38,0.00,40.00,9,2,13,0.00
2013-10-10,75.0,56.3,44.0,50.0,45.5,42.0,94,71,38,0.00,40.00,4,2,9,0.00
2013-10-11,76.0,60.0,47.0,54.0,49.3,44.0,90,70,36,0.00,40.00,7,2,13,0.00
2013-10-12,73.0,62.0,53.0,60.0,56.1,52.0,97,82,62,0.00,40.00,7,2,9,0.00
2013-10-13,71.0,62.8,57.0,62.0,56.3,-99.9,96,83,71,0.00,40.00,6,2,11,0.00
2013-10-14,71.0,60.0,49.0,53.0,50.9,48.0,96,74,51,0.00,40.00,10,3,16,0.00
2013-10-15,70.0,59.6,49.0,61.0,55.2,47.0,98,86,72,0.00,40.00,7,3,12,0.00
2013-10-18,64.0,51.4,42.0,46.0,43.4,42.0,97,76,47,0.00,40.00,16,6,19,0.00
2013-10-19,51.0,46.7,42.0,48.0,42.7,40.0,96,86,73,0.00,40.00,16,5,22,2.75
2013-10-20,60.0,48.0,38.0,42.0,37.2,-99.9,92,70,48,0.00,40.00,14,7,23,0.00
2013-10-21,66.0,52.8,42.0,44.0,39.5,37.0,84,62,38,0.00,40.00,15,6,22,0.00
2013-10-22,56.0,43.9,35.0,49.0,33.4,27.0,93,68,40,0.00,40.00,10,5,18,1.65
2013-10-23,45.0,39.4,36.0,38.0,35.9,32.0,97,88,64,0.00,40.00,12,4,20,6.05
2013-10-24,46.0,37.4,33.0,35.0,31.2,25.0,91,80,47,0.00,40.00,14,6,22,0.00
2013-10-25,48.0,37.0,29.0,32.0,29.4,27.0,95,76,48,0.00,40.00,13,4,21,0.00
2013-10-26,47.0,40.5,34.0,35.0,28.6,26.0,76,63,45,0.00,40.00,19,9,29,0.00
2013-11-1,62.0,55.9,51.0,61.0,48.1,43.0,98,76,55,0.00,40.00,21,10,29,1.65
2013-11-2,52.0,48.7,44.0,45.0,40.5,37.0,93,73,57,0.00,40.00,14,6,19,0.55
2013-11-3,50.0,43.8,40.0,40.0,35.8,31.0,92,74,54,0.00,40.00,4,2,7,0.00
2013-11-4,54.0,43.9,33.0,37.0,31.6,27.0,81,63,43,0.00,40.00,9,4,14,0.00
2013-11-5,62.0,53.1,47.0,41.0,37.5,35.0,70,55,45,0.00,40.00,5,2,10,0.00
2013-11-6,68.0,57.2,47.0,58.0,45.0,32.0,97,66,45,0.00,40.00,16,8,25,3.85
2013-11-7,56.0,43.2,38.0,54.0,34.1,26.0,95,71,46,0.00,40.00,15,6,25,1.10
2013-11-8,45.0,38.1,33.0,33.0,30.3,27.0,90,75,49,0.00,40.00,11,4,16,1.10
2013-11-9,52.0,40.1,32.0,31.0,29.0,27.0,91,66,45,0.00,40.00,11,5,16,0.00
2013-11-10,49.0,46.0,43.0,37.0,36.3,36.0,75,69,61,0.00,40.00,10,9,17,0.00
2013-12-8,30.0,24.0,17.0,30.0,19.8,12.0,96,84,73,0.00,40.00,11,5,16,2.75
2013-12-9,35.0,31.1,26.0,34.0,26.7,20.0,98,84,72,0.00,40.00,16,9,22,0.00
2013-12-10,26.0,22.5,19.0,19.0,14.6,8.0,91,72,56,0.00,40.00,14,9,27,4.95
2013-12-11,31.0,22.8,15.0,19.0,14.4,10.0,82,70,56,0.00,40.00,12,6,17,0.00
2013-12-12,19.0,15.4,10.0,10.0,4.5,0.0,79,62,43,0.00,40.00,16,6,21,0.00
2013-12-13,33.0,25.9,17.0,22.0,14.7,7.0,75,62,53,0.00,40.00,11,5,15,0.00
2013-12-14,38.0,32.8,29.0,37.0,29.8,-99.9,98,94,79,0.00,40.00,11,5,20,13.36